Location: Newark
(50.0306°N, 2.3272°E)
Time: 20:41:41
(UTC+00:00)

Vanguard 2 - Visible Passes

Search period start: 08 December 2019 00:00
Search period end: 18 December 2019 00:00
Orbit: 553 x 2938 km, 32.9° (Epoch: 08 December)

Date Brightness Start Highest point End Pass type
(mag) Time Alt. Az. Time Alt. Az. Time Alt. Az.
08 Dec 11.3 01:18:00 25° SE 01:18:00 25° SE 01:26:45 10° E visible
08 Dec 10.8 03:19:25 36° SSW 03:23:37 41° S 03:37:49 10° ESE visible
08 Dec 10.8 05:20:49 15° WSW 05:34:00 39° SSW 05:46:20 10° SE visible
09 Dec 11.2 01:34:51 30° SE 01:34:51 30° SE 01:45:01 10° E visible
09 Dec 10.7 03:36:15 36° SSW 03:41:12 42° S 03:55:33 10° ESE visible
09 Dec 10.9 05:37:40 13° WSW 05:51:29 37° SSW 06:03:37 10° SE visible
10 Dec 11.0 01:51:39 34° SE 01:51:39 34° SE 02:03:05 10° ESE visible
10 Dec 10.8 03:53:03 35° SW 03:58:48 43° S 04:13:09 10° ESE visible
10 Dec 11.0 05:54:28 10° W 06:08:53 33° SSW 06:20:41 10° SSE visible
11 Dec 11.8 00:07:03 12° ESE 00:07:03 12° ESE 00:08:30 10° E visible
11 Dec 10.9 02:08:26 38° SSE 02:08:26 38° SSE 02:21:00 10° ESE visible
11 Dec 10.8 04:09:50 33° SW 04:16:23 42° S 04:30:40 10° SE visible
11 Dec 11.1 06:12:31 10° W 06:26:13 29° SSW 06:37:31 10° SSE visible
12 Dec 11.7 00:23:48 16° ESE 00:23:48 16° ESE 00:26:59 10° E visible
12 Dec 10.8 02:25:12 41° SSE 02:25:12 41° SSE 02:38:47 10° ESE visible
12 Dec 10.8 04:26:36 30° SW 04:33:56 40° SSW 04:48:01 10° SE visible
12 Dec 11.2 06:30:54 10° W 06:43:26 25° SW 06:54:01 10° SSE visible
13 Dec 11.5 00:40:33 19° ESE 00:40:33 19° ESE 00:45:12 10° E visible
13 Dec 10.7 02:41:57 42° S 02:41:57 42° S 02:56:29 10° ESE visible
13 Dec 10.9 04:43:21 26° WSW 04:51:26 37° SSW 05:05:14 10° SE visible
13 Dec 11.4 06:49:39 10° W 07:00:34 20° SW 07:10:02 10° S visible
14 Dec 11.4 00:57:19 23° ESE 00:57:19 23° ESE 01:03:14 10° ESE visible
14 Dec 10.7 02:58:43 43° S 02:58:43 43° S 03:14:04 10° ESE visible
14 Dec 11.0 05:00:07 22° WSW 05:08:51 34° SSW 05:22:12 10° SSE visible
15 Dec 11.3 01:14:05 26° ESE 01:14:05 26° ESE 01:21:08 10° ESE visible
15 Dec 10.7 03:15:29 41° SSW 03:16:05 42° S 03:31:32 10° SE visible
15 Dec 11.1 05:16:53 19° WSW 05:26:13 29° SSW 05:38:55 10° SSE visible
16 Dec 11.2 01:30:51 29° SE 01:30:51 29° SE 01:38:54 10° ESE visible
16 Dec 10.7 03:32:15 39° SSW 03:33:39 39° SSW 03:48:50 10° SE visible
16 Dec 11.2 05:33:39 15° WSW 05:43:28 25° SW 05:55:14 10° SSE visible
17 Dec 11.1 01:47:39 31° SE 01:47:39 31° SE 01:56:34 10° ESE visible
17 Dec 10.8 03:49:04 35° SSW 03:51:10 36° SSW 04:05:57 10° SE visible
17 Dec 11.4 05:50:28 11° WSW 06:00:40 20° SW 06:11:00 10° S visible
